{"data":{"norad_id":39151,"epoch":"2026-09-19T08:59:49.895520Z","epoch_age_seconds":111450,"freshness":"FRESH","line1":"1 39151U 13018B   26262.37488305  .00001891  00000+0  18282-3 0  9990","line2":"2 39151  98.1360  49.7412 0011740 208.4985 151.5593 14.94039522724768","mean_motion":14.94039522,"eccentricity":0.001174,"inclination_deg":98.136,"raan_deg":49.7412,"arg_perigee_deg":208.4985,"mean_anomaly_deg":151.5593,"bstar":0.00018282,"rev_number":72476,"period_min":96.382992470798,"perigee_km":577.18044146308,"apogee_km":593.53072204503,"semimajor_km":6963.4925817541,"source":"CELESTRAK","updated_at":"2026-09-20T09:00:48.021382Z"}}